#timestamp,LO_Frequency,Hit 
1505124015.3,286047005.5,N
1505124035.1,286047004.1,N
1505124055.9,286047002.8,N
1505124075.7,286047001.0,N
1505124095.5,286046999.0,N
1505124115.4,286046999.1,N
1505124135.2,286046993.7,N
1505124155.0,286046998.0,N
1505124155.9,286046998.0,N
1505124175.8,286046997.2,N
1505124195.6,286046994.4,N
1505124215.4,286046997.2,N
1505124235.3,286046999.0,N
1505124255.1,286046992.1,N
1505124256.0,286046992.1,N
1505124275.8,286046993.1,N
1505124295.7,286046994.7,N
1505124315.5,286046997.8,N
1505124335.3,286046999.6,N
1505124355.2,286046994.2,N
1505124375.9,286046992.1,N
1505124395.7,286046993.7,N
1505124415.6,286046997.5,N
1505124435.4,286046999.3,N
1505124455.2,286047000.0,N
1505124475.0,286046996.5,N
1505124476.0,286046996.5,N
1505124495.8,286046999.1,N
1505124515.6,286046999.6,N
1505124535.4,286046998.2,N
1505124555.3,286047002.3,N
1505124575.1,286047000.8,N
1505124595.8,286046998.3,N
1505124615.7,286047002.3,N
1505124635.5,286047002.2,N
1505124655.3,286047001.5,N
1505124675.2,286047005.6,N
1505124695.9,286047001.0,N
1505124715.7,286047001.2,N
1505124735.6,286046997.4,N
1505124755.4,286046995.1,N
1505124775.2,286046993.3,N
1505124795.1,286047000.8,N
1505124796.0,286047000.8,N
1505124815.8,286047000.6,N
1505124835.6,286046998.4,N
1505124855.5,286046998.7,N
1505124875.3,286046996.8,N
1505124895.1,286046998.8,N
1505124915.8,286046999.4,N
1505124935.7,286046999.2,N
1505124955.5,286046999.3,N
1505124975.3,286046996.8,N
1505124995.2,286047000.3,N
1505125015.0,286047001.6,N
1505125015.9,286047001.6,N
1505125035.7,286047000.4,N
1505125055.6,286047001.0,N
1505125075.4,286046999.5,N
1505125095.2,286046998.9,N
1505125115.1,286046997.2,N
1505125116.0,286046997.2,N
1505125135.8,286046998.9,N
1505125155.6,286046999.4,N
1505125175.5,286047000.7,N
1505125195.3,286046998.9,N
1505125215.1,286046996.1,N
1505125235.9,286046995.3,N
1505125255.7,286046993.5,P
1505125275.5,286046997.3,N
1505125295.4,286046999.6,N
1505125315.2,286046995.4,N
1505125335.0,286046995.0,N
1505125335.9,286046995.0,N
1505125355.8,286046995.4,N
1505125375.6,286046997.8,N
1505125395.4,286046996.6,N
1505125415.3,286046996.7,N
1505125435.1,286046996.8,N
1505125436.0,286046996.8,N
1505125455.8,286046995.1,P
1505125475.7,286047000.3,N
1505125495.5,286047000.7,N
1505125515.3,286047002.2,N
1505125535.2,286047001.4,N
1505125555.9,286046999.2,N
1505125575.7,286046999.4,N
1505125595.6,286046998.9,N
1505125615.4,286047000.6,N
1505125635.2,286046998.8,N
1505125655.1,286046999.8,N
1505125656.0,286046999.8,N
1505125675.8,286047002.8,N
1505125695.6,286047001.3,N
1505125715.4,286047002.5,N
1505125735.3,286047000.0,N
1505125755.1,286047005.4,N
1505125775.8,286047004.4,N
1505125795.7,286047003.2,N
1505125815.5,286047004.4,N
1505125835.3,286047000.1,N
1505125855.2,286047000.6,N
1505125875.9,286047000.1,N
1505125895.7,286047000.8,N
1505125915.6,286046996.7,N
1505125935.4,286046998.2,N
1505125955.2,286047001.7,N
1505125975.1,286047004.1,N
1505125976.0,286047004.1,N
1505125995.8,286047003.2,N
1505126015.6,286047004.4,N
1505126035.4,286046998.6,N
1505126055.3,286046997.3,N
1505126075.1,286046998.1,N
1505126095.8,286047001.7,N
1505126115.7,286047002.2,N
1505126135.5,286046999.7,N
1505126155.3,286046996.5,N
1505126175.2,286046998.8,N
1505126195.9,286046995.7,N
1505126215.7,286046996.4,N
1505126235.6,286046993.8,N
1505126255.4,286046993.8,N
1505126275.2,286046996.0,N
1505126295.1,286046996.8,N
1505126296.0,286046996.8,N
1505126315.8,286046999.1,N
1505126335.6,286046998.5,N
1505126355.5,286047002.6,N
1505126375.3,286047002.2,N
1505126395.1,286047001.9,N
1505126415.9,286047003.8,N
1505126435.7,286047003.4,N
1505126455.5,286047005.7,N
1505126475.3,286047004.1,N
1505126495.2,286047004.0,N
1505126515.0,286047001.4,N
1505126515.9,286047001.4,N
1505126535.7,286047004.4,N
1505126555.6,286047001.9,N
1505126575.4,286046999.8,N
1505126595.3,286046999.4,N
1505126615.1,286046993.8,N
1505126616.0,286046993.8,N
1505126635.8,286046990.2,N
1505126655.6,286046990.3,N
1505126675.5,286046993.6,N
1505126695.3,286046992.8,N
1505126715.1,286046993.7,N
1505126735.9,286046995.1,N
1505126755.7,286046993.5,N
1505126775.5,286046996.2,N
1505126795.4,286046996.3,N
1505126815.2,286046998.9,N
1505126835.0,286046995.8,N
1505126835.9,286046995.8,N
1505126855.8,286046991.8,N
1505126875.6,286046994.2,N
1505126895.4,286046997.6,N
1505126915.3,286047000.4,N
1505126935.1,286046999.8,N
1505126936.0,286046999.8,N
1505126955.8,286047002.3,N
1505126975.7,286047000.3,N
1505126995.5,286047000.1,N
1505127015.3,286047002.7,N
1505127035.1,286047001.1,N
1505127055.9,286046997.0,N
1505127075.7,286046999.0,N
1505127095.5,286046998.5,N
1505127115.4,286046998.1,N
1505127135.2,286047002.7,N
1505127155.0,286047002.7,N
1505127155.9,286047002.7,N
1505127175.8,286046998.3,N
1505127195.7,286046999.0,N
1505127215.5,286046997.1,N
1505127235.3,286046997.2,N
1505127255.2,286046999.6,N
1505127275.9,286046995.9,N
1505127295.7,286047002.8,N
1505127315.6,286047001.1,N
1505127335.4,286046999.3,N
1505127355.2,286046998.4,N
1505127375.0,286046998.7,N
1505127376.0,286046998.7,N
1505127395.8,286047000.7,N
1505127415.6,286047001.0,N
1505127435.4,286047000.9,N
1505127455.3,286046998.5,N
1505127475.1,286046997.0,N
1505127495.8,286046996.5,N
1505127515.7,286046996.6,N
1505127535.5,286046995.0,N
1505127555.3,286046995.0,N
1505127575.2,286046997.8,N
1505127595.9,286046997.8,N
